Flag for Romania Weather past 2 weeks in Iasi, Romania

Now
43 °F

Light rain. Partly cloudy.


Feels Like: 36 °F
Forecast: 40 / 59 °F
Wind: 13 mph from Northeast

Location: Iasi Airport

Current Time: Mar 29, 2015 at 2:15:26 AM

Latest Report: Mar 29, 2015 at 1:00 AM


Visibility: 3 mi

Pressure: 29.71 "Hg

Humidity: 100%

Dew point: 43 °F

Location of IasiLocation

Historic Weather in Iasi — Graph

°F

Iasi temperature yesterday

Maximum temperature yesterday: 54 °F (at 12:30 PM)
Minimum temperature yesterday: 45 °F (at 2:00 AM)
Average temperature yesterday: 47 °F

Past Weeks' High & Low Weather Summary

 TemperatureHumidityPressure
High63 °F (Mar 25, 3:30 PM)100% (Mar 14, 1:00 AM)30.72 "Hg (Mar 14, 1:00 AM)
Low30 °F (Mar 24, 3:00 AM)24% (Mar 23, 4:30 PM)29.71 "Hg (Mar 29, 12:00 AM)
Average43 °F72%30.19 "Hg
* Reported Mar 14 1:00 AM — Mar 29 1:00 AM, Iasi, Weather by CustomWeather, © 2015

Note: Actual official high and low records may vary slightly from our data, if they occured in-between our weather recording intervals... More about our weather records

Advertising

Iasi weather history for previous 24 hours

 ConditionsComfort  
Time TempWeatherWind HumidityBarometerVisibility
1:00 AM
Sun, Mar 29
43 °FLight rain. Partly cloudy.13 mph100%29.71 "Hg3 mi
12:00 AM45 °FLight rain. Partly cloudy.10 mph93%29.71 "HgN/A
11:00 PM
Sat, Mar 28
45 °FLight rain. Partly cloudy.12 mph93%29.74 "HgN/A
10:00 PM45 °FLight rain. Partly cloudy.13 mph100%29.74 "Hg6 mi
9:00 PM46 °FLight rain. Partly cloudy.10 mph93%29.74 "Hg4 mi
8:30 PM46 °FLight rain. Partly cloudy.9 mph100%29.74 "Hg3 mi
8:00 PM46 °FLight rain. Partly cloudy.10 mph100%29.74 "Hg4 mi
7:30 PM46 °FLight rain. Partly cloudy.13 mph100%29.74 "Hg3 mi
7:00 PM46 °FLight rain. Partly cloudy.12 mph100%29.74 "Hg3 mi
6:30 PM46 °FRain. Broken clouds.13 mph100%29.74 "Hg3 mi
5:30 PM46 °FLight rain. Broken clouds.9 mph100%29.74 "Hg4 mi
5:00 PM46 °FLight rain. Partly sunny.9 mph100%29.74 "Hg4 mi
4:30 PM48 °FLight rain. Overcast.10 mph94%29.74 "Hg5 mi
4:00 PM48 °FLight rain. Partly sunny.8 mph94%29.74 "Hg5 mi
3:30 PM48 °FLight rain. Partly sunny.8 mph94%29.74 "Hg5 mi
3:00 PM48 °FLight rain. Partly sunny.9 mph94%29.74 "Hg6 mi
2:30 PM48 °FLight rain. Partly sunny.8 mph94%29.74 "Hg6 mi
2:00 PM50 °FLight rain. Overcast.9 mph82%29.74 "HgN/A
1:30 PM50 °FLight rain. Partly sunny.10 mph88%29.74 "HgN/A
1:00 PM52 °FLight rain. Partly sunny.8 mph77%29.74 "HgN/A
12:30 PM54 °FScattered clouds.6 mph77%29.77 "HgN/A
12:00 PM52 °FPartly sunny.6 mph77%29.74 "HgN/A
11:30 AM52 °FPartly sunny.5 mph77%29.74 "HgN/A
11:00 AM52 °FOvercast.5 mph82%29.77 "HgN/A
10:30 AM50 °FOvercast.5 mph88%29.77 "HgN/A
10:00 AM50 °FOvercast.6 mph88%29.77 "Hg6 mi
9:30 AM48 °FPassing clouds.5 mph94%29.77 "Hg4 mi
9:00 AM48 °FFog.6 mph94%29.77 "Hg3 mi
8:30 AM46 °FFog.3 mph100%29.77 "Hg3 mi
8:00 AM46 °FFog.3 mph100%29.77 "Hg2 mi
7:30 AM45 °FFog.2 mph100%29.77 "Hg2 mi
7:00 AM45 °FFog.2 mph100%29.77 "Hg1 mi
6:30 AM45 °FFog.3 mph100%29.77 "Hg1 mi
6:00 AM45 °FFog.5 mph100%29.77 "Hg2 mi
5:30 AM45 °FFog.3 mph100%29.77 "Hg2 mi
5:00 AM45 °FFog.1 mph100%29.77 "Hg2 mi
4:00 AM45 °FFog.3 mph100%29.77 "Hg2 mi
3:00 AM45 °FFog.3 mph100%29.80 "Hg2 mi
2:00 AM45 °FFog.5 mph100%29.80 "Hg3 mi
Weather by CustomWeather, © 2015

See weather overviewHow to use our weather pages